Location: Boiro
(42.6475°N, 8.8834°W)
Time: 17:08:52
(UTC+02:00)

Explorer 7 - Pass Details

Date: 29 June 2022
Orbit: 482 x 668 km, 50.3° (Epoch: 10 August)

Event Time Altitude Azimuth Distance (km) Brightness Sun altitude
Rises 04:34:17 0° 285° (WNW) 2,982 10.4 -19.0°
Reaches altitude 10° 04:36:54 10° 296° (WNW) 2,050 9.7 -18.7°
Maximum altitude 04:41:06 31° 359° (N) 1,108 8.9 -18.4°
Drops below altitude 10° 04:45:08 10° 62° (ENE) 1,959 10.5 -18.0°
Sets 04:47:35 0° 73° (ENE) 2,828 11.2 -17.8°
